Flag for U.S.A. Weather past 2 weeks in St. Louis, Missouri, U.S.A.

Now
83 °F

Scattered clouds.


Feels Like: 83 °F
Forecast: 64 / 83 °F
Wind: 8 mph from East

Location: Lambert-St. Louis International Airport

Current Time: Jul 31, 2014 at 7:30:06 PM

Latest Report: Jul 31, 2014 at 6:51 PM


Visibility: 10 mi

Pressure: 30.01 "Hg

Humidity: 43%

Dew point: 58 °F

Location of St. LouisLocation

Historic Weather in St. Louis — Graph

°F

St. Louis temperature yesterday

Maximum temperature yesterday: 85 °F (at 1:51 PM)
Minimum temperature yesterday: 65 °F (at 5:51 AM)
Average temperature yesterday: 76 °F

Past Weeks' High & Low Weather Summary

 TemperatureHumidityPressure
High99 °F (Jul 26, 1:51 PM)85% (Jul 23, 6:51 AM)30.14 "Hg (Jul 23, 6:51 AM)
Low60 °F (Jul 29, 4:51 AM)32% (Jul 27, 2:51 PM)29.77 "Hg (Jul 27, 4:51 AM)
Average76 °F60%30.01 "Hg
* Reported Jul 16 5:51 PM — Jul 31 5:51 PM, St. Louis, Weather by CustomWeather, © 2014

Note: Actual official high and low records may vary slightly from our data, if they occured in-between our weather recording intervals... More about our weather records

Advertising

St. Louis weather history for previous 24 hours

 ConditionsComfort  
Time TempWeatherWind HumidityBarometerVisibility
5:51 PM
Jul 31
84 °FScattered clouds.5 mph41%30.01 "Hg10 mi
4:51 PM84 °FScattered clouds.No wind40%30.02 "Hg10 mi
3:51 PM85 °FScattered clouds.6 mph42%30.03 "Hg10 mi
2:51 PM83 °FBroken clouds.3 mph43%30.04 "Hg10 mi
1:51 PM85 °FBroken clouds.6 mph40%30.04 "Hg10 mi
12:51 PM84 °FBroken clouds.3 mph43%30.05 "Hg10 mi
11:51 AM82 °FScattered clouds.No wind44%30.06 "Hg10 mi
10:51 AM80 °FScattered clouds.3 mph49%30.07 "Hg10 mi
9:51 AM80 °FScattered clouds.6 mph52%30.07 "Hg10 mi
7:51 AM71 °FPassing clouds.No wind73%30.07 "Hg10 mi
6:51 AM67 °FPassing clouds.No wind81%30.06 "Hg10 mi
5:51 AM66 °FPassing clouds.No wind78%30.05 "Hg10 mi
4:51 AM66 °FClear.No wind78%30.04 "Hg10 mi
3:51 AM68 °FPassing clouds.No wind73%30.03 "Hg10 mi
2:51 AM69 °FPassing clouds.No wind73%30.04 "Hg10 mi
1:51 AM72 °FPassing clouds.3 mph66%30.04 "Hg10 mi
12:51 AM73 °FPartly cloudy.No wind62%30.04 "Hg10 mi
11:51 PM
Jul 30
75 °FPartly cloudy.No wind55%30.04 "Hg10 mi
10:51 PM76 °FPassing clouds.3 mph56%30.03 "Hg10 mi
9:51 PM75 °FPartly cloudy.3 mph54%30.03 "Hg10 mi
8:51 PM76 °FBroken clouds.3 mph52%30.02 "Hg10 mi
7:51 PM79 °FBroken clouds.6 mph45%30.01 "Hg10 mi
Weather by CustomWeather, © 2014

See weather overviewHow to use our weather pages